Time,TemperatureF,DewpointF,PressureIn,WindDirection,WindDirectionDegrees,WindSpeedMPH,WindSpeedGustMPH,Humidity,HourlyPrecipIn,Conditions,Clouds,dailyrainin,SoftwareType,DateUTC
2013-07-22 00:01:00,65.0,64.0,30.01,West,280,0.0,0.0,97,0.00,,,0.00,,2013-07-22 04:01:00,
2013-07-22 00:12:00,65.0,64.0,30.01,West,279,0.0,0.0,97,0.00,,,0.00,,2013-07-22 04:12:00,
2013-07-22 00:22:00,65.0,64.0,30.01,West,280,0.0,0.0,97,0.00,,,0.00,,2013-07-22 04:22:00,
2013-07-22 00:33:00,65.0,64.0,30.02,West,280,0.0,0.0,97,0.00,,,0.00,,2013-07-22 04:33:00,
2013-07-22 00:43:00,65.0,64.0,30.02,West,279,0.0,0.0,98,0.00,,,0.00,,2013-07-22 04:43:00,
2013-07-22 01:02:00,65.0,64.0,30.02,West,279,0.0,0.0,98,0.00,,,0.00,,2013-07-22 05:02:00,
2013-07-22 01:11:00,64.0,63.0,30.02,West,279,0.0,0.0,98,0.00,,,0.00,,2013-07-22 05:11:00,
2013-07-22 01:22:00,64.0,63.0,30.01,West,280,0.0,0.0,98,0.00,,,0.00,,2013-07-22 05:22:00,
2013-07-22 01:32:00,65.0,65.0,30.01,West,279,0.0,0.0,99,0.00,,,0.00,,2013-07-22 05:32:00,
2013-07-22 01:43:00,65.0,64.0,30.01,West,279,0.0,0.0,98,0.00,,,0.00,,2013-07-22 05:43:00,
2013-07-22 01:52:00,65.0,65.0,30.01,West,280,0.0,0.0,99,0.00,,,0.00,,2013-07-22 05:52:00,
2013-07-22 02:01:00,66.0,66.0,30.01,West,279,0.0,0.0,99,0.00,,,0.00,,2013-07-22 06:01:00,
2013-07-22 02:11:00,66.0,66.0,30.01,West,280,0.0,0.0,99,0.00,,,0.00,,2013-07-22 06:11:00,
2013-07-22 02:22:00,66.0,66.0,30.01,West,280,0.0,0.0,99,0.00,,,0.00,,2013-07-22 06:22:00,
2013-07-22 02:33:00,66.0,66.0,30.01,West,280,0.0,0.0,99,0.00,,,0.00,,2013-07-22 06:33:00,
2013-07-22 02:43:00,66.0,66.0,30.01,West,280,0.0,0.0,99,0.00,,,0.00,,2013-07-22 06:43:00,
2013-07-22 02:52:00,66.0,66.0,30.01,West,279,0.0,0.0,99,0.00,,,0.00,,2013-07-22 06:52:00,
2013-07-22 03:01:00,66.0,66.0,30.01,West,279,0.0,0.0,99,0.00,,,0.00,,2013-07-22 07:01:00,
2013-07-22 03:12:00,66.0,66.0,30.01,West,279,0.0,0.0,99,0.00,,,0.00,,2013-07-22 07:12:00,
2013-07-22 03:22:00,67.0,67.0,30.00,West,280,0.0,0.0,99,0.00,,,0.00,,2013-07-22 07:22:00,
2013-07-22 03:33:00,67.0,67.0,30.00,West,280,0.0,0.0,99,0.00,,,0.00,,2013-07-22 07:33:00,
2013-07-22 03:43:00,67.0,67.0,30.00,West,278,0.0,0.0,99,0.00,,,0.00,,2013-07-22 07:43:00,
2013-07-22 03:53:00,67.0,67.0,30.00,West,278,0.0,0.0,99,0.00,,,0.00,,2013-07-22 07:53:00,
2013-07-22 04:02:00,67.0,67.0,30.00,West,278,0.0,0.0,99,0.00,,,0.00,,2013-07-22 08:02:00,
2013-07-22 04:11:00,67.0,67.0,29.99,West,278,0.0,0.0,99,0.00,,,0.00,,2013-07-22 08:11:00,
2013-07-22 04:22:00,67.0,67.0,30.00,West,278,0.0,0.0,99,0.00,,,0.00,,2013-07-22 08:22:00,
2013-07-22 04:32:00,68.0,68.0,30.00,West,278,0.0,0.0,99,0.00,,,0.00,,2013-07-22 08:32:00,
2013-07-22 04:43:00,68.0,68.0,30.01,West,278,0.0,0.0,99,0.00,,,0.00,,2013-07-22 08:43:00,
2013-07-22 04:52:00,68.0,68.0,30.01,West,278,0.0,0.0,99,0.00,,,0.00,,2013-07-22 08:52:00,
2013-07-22 05:02:00,68.0,68.0,30.01,West,278,0.0,0.0,99,0.00,,,0.00,,2013-07-22 09:02:00,
2013-07-22 05:11:00,68.0,68.0,30.01,West,278,0.0,1.0,99,0.00,,,0.00,,2013-07-22 09:11:00,
2013-07-22 05:22:00,68.0,68.0,30.01,West,279,0.0,0.0,99,0.00,,,0.00,,2013-07-22 09:22:00,
2013-07-22 05:33:00,68.0,68.0,30.02,West,278,0.0,0.0,99,0.00,,,0.00,,2013-07-22 09:33:00,
2013-07-22 05:42:00,68.0,68.0,30.02,West,278,0.0,0.0,99,0.00,,,0.00,,2013-07-22 09:42:00,
2013-07-22 05:52:00,68.0,68.0,30.02,West,279,0.0,1.0,99,0.00,,,0.00,,2013-07-22 09:52:00,
2013-07-22 06:02:00,68.0,68.0,30.02,West,278,0.0,1.0,99,0.00,,,0.00,,2013-07-22 10:02:00,
2013-07-22 06:11:00,67.0,67.0,30.02,West,278,0.0,1.0,99,0.00,,,0.00,,2013-07-22 10:11:00,
2013-07-22 06:22:00,67.0,67.0,30.02,West,278,0.0,0.0,99,0.00,,,0.00,,2013-07-22 10:22:00,
2013-07-22 06:32:00,67.0,67.0,30.02,West,278,0.0,0.0,99,0.00,,,0.00,,2013-07-22 10:32:00,
2013-07-22 06:43:00,67.0,67.0,30.02,West,278,0.0,0.0,99,0.00,,,0.00,,2013-07-22 10:43:00,
2013-07-22 06:53:00,68.0,68.0,30.02,West,278,0.0,0.0,100,0.00,,,0.00,,2013-07-22 10:53:00,
2013-07-22 07:02:00,68.0,68.0,30.03,West,278,0.0,1.0,99,0.00,,,0.00,,2013-07-22 11:02:00,
2013-07-22 07:11:00,68.0,68.0,30.03,West,278,0.0,1.0,99,0.00,,,0.00,,2013-07-22 11:11:00,
2013-07-22 07:23:00,68.0,68.0,30.02,West,278,0.0,1.0,99,0.00,,,0.00,,2013-07-22 11:23:00,
2013-07-22 07:32:00,68.0,68.0,30.02,West,278,0.0,0.0,99,0.00,,,0.00,,2013-07-22 11:32:00,
2013-07-22 07:43:00,67.0,67.0,30.02,West,277,0.0,1.0,99,0.00,,,0.00,,2013-07-22 11:43:00,
2013-07-22 07:52:00,68.0,68.0,30.03,West,277,0.0,1.0,99,0.00,,,0.00,,2013-07-22 11:52:00,
2013-07-22 08:02:00,68.0,68.0,30.02,West,277,0.0,1.0,99,0.00,,,0.00,,2013-07-22 12:02:00,
2013-07-22 08:12:00,68.0,68.0,30.02,West,277,0.0,1.0,99,0.00,,,0.00,,2013-07-22 12:12:00,
2013-07-22 08:22:00,68.0,68.0,30.03,West,277,0.0,1.0,99,0.00,,,0.00,,2013-07-22 12:22:00,
2013-07-22 08:33:00,68.0,68.0,30.03,West,276,0.0,1.0,99,0.00,,,0.00,,2013-07-22 12:33:00,
2013-07-22 08:43:00,68.0,68.0,30.03,West,276,0.0,1.0,99,0.00,,,0.00,,2013-07-22 12:43:00,
2013-07-22 08:53:00,68.0,67.0,30.03,West,277,1.0,2.0,98,0.00,,,0.00,,2013-07-22 12:53:00,
2013-07-22 09:01:00,68.0,67.0,30.03,West,277,0.0,1.0,98,0.00,,,0.00,,2013-07-22 13:01:00,
2013-07-22 09:11:00,69.0,68.0,30.03,West,277,0.0,1.0,98,0.00,,,0.00,,2013-07-22 13:11:00,
2013-07-22 09:43:00,69.0,68.0,30.04,West,275,0.0,1.0,96,0.00,,,0.00,,2013-07-22 13:43:00,
2013-07-22 09:53:00,70.0,69.0,30.04,West,276,0.0,2.0,96,0.00,,,0.00,,2013-07-22 13:53:00,
2013-07-22 10:22:00,72.0,69.0,30.05,West,278,0.0,1.0,91,0.00,,,0.00,,2013-07-22 14:22:00,
2013-07-22 10:32:00,73.0,70.0,30.04,West,278,0.0,1.0,90,0.00,,,0.00,,2013-07-22 14:32:00,
2013-07-22 10:43:00,73.0,70.0,30.04,West,278,0.0,1.0,90,0.00,,,0.00,,2013-07-22 14:43:00,
2013-07-22 10:53:00,73.0,69.0,30.05,West,278,0.0,2.0,87,0.00,,,0.00,,2013-07-22 14:53:00,
2013-07-22 11:11:00,74.0,70.0,30.05,West,278,0.0,1.0,87,0.00,,,0.00,,2013-07-22 15:11:00,
2013-07-22 11:33:00,74.0,70.0,30.05,West,278,0.0,0.0,87,0.00,,,0.00,,2013-07-22 15:33:00,
2013-07-22 11:43:00,74.0,70.0,30.05,West,278,0.0,1.0,88,0.00,,,0.00,,2013-07-22 15:43:00,
2013-07-22 11:52:00,74.0,70.0,30.04,West,278,327.0,0.0,86,0.00,,,0.00,,2013-07-22 15:52:00,
2013-07-22 12:01:00,75.0,71.0,30.04,West,278,0.0,1.0,86,0.00,,,0.00,,2013-07-22 16:01:00,
2013-07-22 12:11:00,76.0,71.0,30.04,West,278,0.0,1.0,84,0.00,,,0.00,,2013-07-22 16:11:00,
2013-07-22 12:43:00,77.0,71.0,30.03,West,278,0.0,2.0,83,0.00,,,0.00,,2013-07-22 16:43:00,
2013-07-22 12:52:00,78.0,72.0,30.02,West,281,1.0,3.0,81,0.00,,,0.00,,2013-07-22 16:52:00,
2013-07-22 13:11:00,79.0,72.0,30.02,WNW,285,2.0,5.0,78,0.00,,,0.00,,2013-07-22 17:11:00,
2013-07-22 13:32:00,79.0,72.0,30.01,West,281,1.0,4.0,78,0.00,,,0.00,,2013-07-22 17:32:00,
2013-07-22 13:43:00,79.0,72.0,30.01,West,278,0.0,1.0,79,0.00,,,0.00,,2013-07-22 17:43:00,
2013-07-22 14:52:00,82.0,72.0,29.99,West,281,0.0,2.0,71,0.00,,,0.00,,2013-07-22 18:52:00,
2013-07-22 15:17:00,82.0,73.0,29.98,WNW,285,0.0,2.0,74,0.00,,,0.00,,2013-07-22 19:17:00,
2013-07-22 15:25:00,83.0,71.0,29.98,West,278,0.0,2.0,68,0.00,,,0.00,,2013-07-22 19:25:00,
2013-07-22 15:37:00,83.0,72.0,29.98,West,279,0.0,2.0,69,0.00,,,0.00,,2013-07-22 19:37:00,
2013-07-22 15:45:00,82.0,71.0,29.98,West,280,1.0,2.0,70,0.00,,,0.00,,2013-07-22 19:45:00,
2013-07-22 15:55:00,83.0,72.0,29.98,West,281,0.0,2.0,70,0.00,,,0.00,,2013-07-22 19:55:00,
2013-07-22 16:05:00,84.0,71.0,29.97,West,280,0.0,1.0,66,0.00,,,0.00,,2013-07-22 20:05:00,
2013-07-22 16:16:00,83.0,72.0,29.97,West,280,0.0,1.0,70,0.00,,,0.00,,2013-07-22 20:16:00,
2013-07-22 16:32:00,82.0,72.0,29.97,WNW,284,0.0,3.0,72,0.00,,,0.00,,2013-07-22 20:32:00,
2013-07-22 16:43:00,82.0,71.0,29.97,WNW,284,0.0,1.0,69,0.00,,,0.00,,2013-07-22 20:43:00,
2013-07-22 16:52:00,81.0,71.0,29.97,West,280,0.0,2.0,71,0.00,,,0.00,,2013-07-22 20:52:00,
2013-07-22 17:22:00,80.0,71.0,29.96,West,281,1.0,3.0,74,0.00,,,0.00,,2013-07-22 21:22:00,
2013-07-22 17:32:00,79.0,70.0,29.96,NW,315,0.0,3.0,75,0.00,,,0.00,,2013-07-22 21:32:00,
2013-07-22 17:43:00,79.0,70.0,29.95,NW,321,0.0,1.0,75,0.00,,,0.00,,2013-07-22 21:43:00,
2013-07-22 17:52:00,78.0,69.0,29.95,NW,312,0.0,1.0,74,0.00,,,0.00,,2013-07-22 21:52:00,
2013-07-22 18:01:00,77.0,68.0,29.96,West,281,0.0,3.0,75,0.00,,,0.00,,2013-07-22 22:01:00,
2013-07-22 18:22:00,77.0,68.0,29.96,West,272,0.0,3.0,75,0.00,,,0.00,,2013-07-22 22:22:00,
2013-07-22 18:32:00,76.0,67.0,29.96,West,270,0.0,1.0,75,0.00,,,0.00,,2013-07-22 22:32:00,
2013-07-22 18:43:00,76.0,68.0,29.95,West,270,0.0,1.0,76,0.00,,,0.00,,2013-07-22 22:43:00,
2013-07-22 18:52:00,75.0,68.0,29.95,West,269,0.0,1.0,78,0.00,,,0.00,,2013-07-22 22:52:00,
2013-07-22 19:01:00,75.0,68.0,29.95,West,269,0.0,1.0,79,0.00,,,0.00,,2013-07-22 23:01:00,
2013-07-22 19:11:00,74.0,67.0,29.94,West,278,0.0,1.0,79,0.00,,,0.00,,2013-07-22 23:11:00,
2013-07-22 19:22:00,73.0,67.0,29.95,West,281,0.0,2.0,81,0.00,,,0.00,,2013-07-22 23:22:00,
2013-07-22 19:32:00,73.0,67.0,29.95,West,280,0.0,2.0,81,0.00,,,0.00,,2013-07-22 23:32:00,
2013-07-22 19:43:00,72.0,66.0,29.95,West,276,0.0,1.0,82,0.00,,,0.00,,2013-07-22 23:43:00,
2013-07-22 19:52:00,71.0,66.0,29.95,West,268,0.0,2.0,84,0.00,,,0.00,,2013-07-22 23:52:00,
2013-07-22 20:01:00,71.0,66.0,29.95,West,268,0.0,0.0,85,0.00,,,0.00,,2013-07-23 00:01:00,
2013-07-22 20:12:00,70.0,66.0,29.94,West,269,0.0,1.0,86,0.00,,,0.00,,2013-07-23 00:12:00,
2013-07-22 20:22:00,70.0,66.0,29.95,West,274,0.0,1.0,88,0.00,,,0.00,,2013-07-23 00:22:00,
2013-07-22 20:32:00,69.0,66.0,29.95,West,274,0.0,0.0,89,0.00,,,0.00,,2013-07-23 00:32:00,
2013-07-22 20:43:00,69.0,66.0,29.95,West,278,0.0,2.0,90,0.00,,,0.00,,2013-07-23 00:43:00,
2013-07-22 20:52:00,68.0,65.0,29.95,West,278,0.0,1.0,91,0.00,,,0.00,,2013-07-23 00:52:00,
2013-07-22 21:22:00,68.0,66.0,29.96,West,278,0.0,1.0,92,0.00,,,0.00,,2013-07-23 01:22:00,
2013-07-22 21:32:00,68.0,66.0,29.96,West,278,0.0,0.0,92,0.00,,,0.00,,2013-07-23 01:32:00,
2013-07-22 21:43:00,68.0,66.0,29.96,West,278,0.0,0.0,92,0.00,,,0.00,,2013-07-23 01:43:00,
2013-07-22 21:53:00,68.0,66.0,29.95,West,278,0.0,0.0,92,0.00,,,0.00,,2013-07-23 01:53:00,
2013-07-22 22:02:00,68.0,66.0,29.96,West,278,0.0,0.0,92,0.00,,,0.00,,2013-07-23 02:02:00,
2013-07-22 22:22:00,68.0,66.0,29.95,West,278,0.0,0.0,93,0.00,,,0.00,,2013-07-23 02:22:00,
2013-07-22 22:33:00,67.0,65.0,29.94,West,279,0.0,0.0,94,0.00,,,0.00,,2013-07-23 02:33:00,
2013-07-22 22:43:00,67.0,65.0,29.94,West,278,0.0,1.0,94,0.00,,,0.00,,2013-07-23 02:43:00,
2013-07-22 22:53:00,67.0,65.0,29.94,West,278,0.0,0.0,94,0.00,,,0.00,,2013-07-23 02:53:00,
2013-07-22 23:11:00,68.0,66.0,29.93,West,278,0.0,0.0,94,0.00,,,0.00,,2013-07-23 03:11:00,
2013-07-22 23:22:00,68.0,66.0,29.93,West,277,0.0,1.0,94,0.00,,,0.00,,2013-07-23 03:22:00,
2013-07-22 23:33:00,68.0,66.0,29.93,West,277,0.0,1.0,94,0.00,,,0.00,,2013-07-23 03:33:00,
2013-07-22 23:43:00,68.0,66.0,29.93,West,277,0.0,1.0,94,0.00,,,0.00,,2013-07-23 03:43:00,
2013-07-22 23:52:00,68.0,66.0,29.93,West,277,0.0,0.0,94,0.00,,,0.00,,2013-07-23 03:52:00,